This is the latest recevied weather packets stored in our database for station/object AD8BV. If no packets are shown the sender has not sent any weather packets the latest 10 day(s).
| Time | Temp. | Humidity | Pressure | Rain* | Wind** | Luminosity | Snow |
|---|---|---|---|---|---|---|---|
| 1777390352 | 12.22° C | 85% | 1013 hPa | 0 mm | - | 84 W/m² | - |
| 1777390047 | 12.22° C | 87% | 1013 hPa | 0 mm | - | 82 W/m² | - |
| 1777389745 | 12.22° C | 86% | 1012.6 hPa | 0 mm | - | 107 W/m² | - |
| 1777389441 | 12.78° C | 85% | 1012.7 hPa | 0 mm | - | 123 W/m² | - |
| 1777389139 | 12.78° C | 85% | 1012.9 hPa | 0 mm | - | 102 W/m² | - |
| 1777388836 | 12.78° C | 86% | 1012.8 hPa | 0 mm | - | 100 W/m² | - |
| 1777388533 | 12.78° C | 85% | 1012.5 hPa | 0 mm | - | 76 W/m² | - |
| 1777388228 | 12.78° C | 85% | 1012.5 hPa | 0 mm | - | 100 W/m² | - |
| 1777387924 | 12.78° C | 85% | 1012.3 hPa | 0 mm | - | 95 W/m² | - |
| 1777387620 | 12.78° C | 86% | 1012.3 hPa | 0 mm | - | 60 W/m² | - |
| 1777387317 | 12.78° C | 87% | 1011.8 hPa | 0 mm | - | 57 W/m² | - |
| 1777387011 | 12.78° C | 86% | 1011.7 hPa | 0 mm | - | 80 W/m² | - |
| 1777386708 | 12.78° C | 85% | 1011.6 hPa | 0 mm | - | 85 W/m² | - |
| 1777386405 | 12.78° C | 86% | 1011.5 hPa | 0 mm | - | 82 W/m² | - |
| 1777386102 | 12.78° C | 86% | 1011.4 hPa | 0 mm | - | 91 W/m² | - |
| 1777385799 | 12.78° C | 86% | 1011.1 hPa | 0 mm | - | 86 W/m² | - |
| 1777385496 | 13.33° C | 86% | 1011.3 hPa | 0 mm | - | 69 W/m² | - |
| 1777385193 | 13.33° C | 86% | 1011.2 hPa | 0 mm | - | 72 W/m² | - |
| 1777384889 | 13.33° C | 85% | 1010.9 hPa | 0 mm | - | 75 W/m² | - |
| 1777384587 | 13.33° C | 85% | 1010.9 hPa | 0 mm | - | 94 W/m² | - |
| 1777384286 | 13.33° C | 86% | 1010.9 hPa | 0 mm | - | 80 W/m² | - |
| 1777383981 | 13.33° C | 86% | 1010.8 hPa | 0 mm | - | 72 W/m² | - |
| 1777383678 | 13.33° C | 86% | 1010.8 hPa | 0 mm | - | 67 W/m² | - |
| 1777383375 | 13.33° C | 86% | 1010.7 hPa | 0 mm | - | 71 W/m² | - |
| 1777383071 | 13.33° C | 85% | 1010.6 hPa | 0 mm | - | 90 W/m² | - |
* Rain latest hour (hover to see other rain measurements)
** Current wind speed in m/s (hover to see current wind gust speed)